Location: Austin
(30.3000°N, 97.7500°W)
Time: 10:40:01
(UTC-05:00)

H-2A R/B - Pass Details

Date: 26 May 2023
Orbit: 521 x 636 km, 98.2° (Epoch: 31 May)

Event Time Altitude Azimuth Distance (km) Brightness Sun altitude
Exits shadow 22:10:17 14° 54° (NE) 1,514 4.4 -19.9°
Drops below altitude 10° 22:11:37 10° 34° (NE) 1,757 5.0 -20.1°
Sets 22:14:26 0° 11° (N) 2,651 6.2 -20.6°
